Mullan Pass, ID

12:10 PM PST on November 22, 2019 (GMT -0800)
Mullan Pass

Weather History for KMLP - October, 2019

Change the Weather History Date:

Tuesday, October 15, 2019

  Actual Average (K3TH) Record (K3TH)
Temperature  
Mean Temperature 40 °F -  
Max Temperature 48 °F 56 °F 64 °F (2002)
Min Temperature 32 °F 35 °F 28 °F (2002)
Degree Days  
Heating Degree Days 25    
Moisture  
Dew Point 25 °F    
Average Humidity 54    
Maximum Humidity 79    
Minimum Humidity 35    
Precipitation  
Precipitation 0.00 in - - ()
Sea Level Pressure  
Sea Level Pressure 29.99 in    
Wind  
Wind Speed 7 mph (South)    
Max Wind Speed 13 mph    
Max Gust Speed 29 mph    
Visibility 10 miles    
Events      
Averages and records for this station are not official NWS values.
T = Trace of Precipitation, MM = Missing Value Source: NWS Daily Summary

Daily Weather History Graph

Daily Weather History Graph

Search for Another Location

Airport or City:

Astronomy

Oct. 15, 2019 Rise Set
Actual Time 7:01 AM PDT 5:55 PM PDT
Civil Twilight 6:30 AM PDT 6:25 PM PDT
Nautical Twilight 5:54 AM PDT 7:01 PM PDT
Astronomical Twilight 5:18 AM PDT 7:37 PM PDT
Moon 7:11 PM PDT (10/15) 8:39 AM PDT (10/15)
Length of Visible Light 11h 55m
Length of Day
10h 53m
Waning Gibbous, 97% of the Moon is Illuminated
Oct 15
Waning Gibbous
Oct 21
Last Quarter
Oct 27
New
Nov 4
First Quarter
Nov 12
Full

Hourly Weather History & Observations

Time (PDT) Temp. Windchill Dew Point Humidity Pressure Visibility Wind Dir Wind Speed Gust Speed Precip Events Conditions
2:53 AM 33.1 °F 25.5 °F 26.1 °F 75% 30.04 in 10.0 mi SSE 9.2 mph - N/A   Clear
3:53 AM 32.0 °F 24.8 °F 26.1 °F 79% 30.05 in 10.0 mi SSE 8.1 mph - N/A   Clear
4:53 AM 32.0 °F 24.8 °F 25.0 °F 75% 30.03 in 10.0 mi SE 8.1 mph - N/A   Clear
5:53 AM 32.0 °F 24.2 °F 25.0 °F 75% 30.04 in 10.0 mi SSE 9.2 mph - N/A   Clear
6:53 AM 32.0 °F 24.2 °F 24.1 °F 73% 30.04 in 10.0 mi SSE 9.2 mph - N/A   Clear
7:53 AM 33.1 °F 25.5 °F 24.1 °F 70% 30.04 in 10.0 mi South 9.2 mph - N/A   Clear
8:53 AM 36.0 °F 29.6 °F 25.0 °F 64% 30.04 in 10.0 mi SSE 8.1 mph - N/A   Clear
9:53 AM 37.0 °F 33.3 °F 25.0 °F 62% 30.03 in 10.0 mi Variable 4.6 mph - N/A   Clear
10:53 AM 39.0 °F 36.8 °F 26.1 °F 60% 30.02 in 10.0 mi Variable 3.5 mph - N/A   Clear
11:53 AM 43.0 °F 41.3 °F 28.0 °F 56% 30.01 in 10.0 mi Variable 3.5 mph - N/A   Clear
12:53 PM 48.0 °F - 28.9 °F 48% 29.99 in 10.0 mi Variable 3.5 mph - N/A   Clear
1:53 PM 48.0 °F - 27.0 °F 44% 29.96 in 10.0 mi Variable 4.6 mph - N/A   Clear
2:53 PM 46.9 °F - 26.1 °F 44% 29.96 in 10.0 mi North - - N/A   Clear
3:53 PM 46.0 °F 43.9 °F 26.1 °F 46% 29.97 in 10.0 mi Variable 4.6 mph - N/A   Clear
4:53 PM 46.0 °F 43.9 °F 24.1 °F 42% 29.98 in 10.0 mi SSW 4.6 mph - N/A   Mostly Cloudy
5:53 PM 46.0 °F 42.5 °F 24.1 °F 42% 29.97 in 10.0 mi Variable 6.9 mph - N/A   Partly Cloudy
6:53 PM 45.0 °F 41.8 °F 25.0 °F 46% 29.97 in 10.0 mi Variable 5.8 mph - N/A   Overcast
7:53 PM 45.0 °F 43.5 °F 25.0 °F 46% 29.97 in 10.0 mi Variable 3.5 mph - N/A   Overcast
8:53 PM 45.0 °F 42.6 °F 21.9 °F 40% 29.95 in 10.0 mi Variable 4.6 mph 17.3 mph N/A   Overcast
9:53 PM 45.0 °F 40.1 °F 21.0 °F 39% 29.95 in 10.0 mi SW 9.2 mph 20.7 mph N/A   Overcast
10:53 PM 46.9 °F - 21.0 °F 36% 29.95 in 10.0 mi SSW 12.7 mph 28.8 mph N/A   Overcast
11:53 PM 46.0 °F 41.4 °F 19.9 °F 35% 29.89 in 10.0 mi SSW 9.2 mph 19.6 mph N/A   Overcast